Cloud_Cover
85 95 100 100 99 100 100 95 100 100 100 100 100 100 99 100 100 96 85 100 27 45 12 66 93 99 100 91 64 77 21 98 10 91 49 81 41 100 90 47 32 31 5
100 67 100 97 100 98 100 100 56 100 100 100 100 99 100 93 69 18 72 89 100 22 62 91 95 100 99 74 61 52 6 40 100 28 100 36 46 24 7 8 5 4 3
100 98 72 100 100 99 100 100 98 100 100 100 100 100 100 54 22 78 99 89 59 53 97 100 92 96 10 34 11 34 24 42 34 30 8 5 5 5 8 11 5 1 3
88 78 33 93 100 100 100 100 100 100 100 100 100 100 97 94 80 95 94 85 100 100 97 18 70 7 8 61 82 99 94 97 100 19 11 7 50 90 46 5 0 0 0
5 12 52 100 100 100 100 100 100 100 100 100 100 100 100 95 99 86 100 90 100 87 45 6 16 21 97 100 100 100 81 64 19 5 5 53 93 17 2 0 0 6 8
17 24 96 100 100 100 100 100 100 100 100 100 100 98 96 100 100 100 100 100 48 60 100 70 18 100 100 100 100 100 76 99 6 38 12 77 3 4 0 0 5 5 52
22 71 100 100 100 100 100 100 100 100 100 100 100 100 73 100 100 100 92 100 88 100 100 100 100 66 100 100 100 100 100 99 10 5 23 0 0 0 4 2 5 40 100
60 92 100 100 100 100 100 100 100 100 100 100 100 100 100 100 100 100 100 99 73 100 100 99 96 99 100 100 98 89 46 6 4 0 0 0 0 0 0 0 4 5 91
8 85 100 100 100 100 100 100 100 100 100 100 100 89 80 100 100 98 99 7 44 98 100 96 99 100 99 73 14 5 3 0 0 0 0 0 0 5 5 9 73 96 86
20 100 90 100 100 100 100 100 100 100 100 100 100 100 83 6 5 5 5 32 87 94 100 100 100 100 74 98 5 0 0 0 0 1 2 0 3 12 89 100 100 100 96
68 69 100 88 100 99 100 27 100 97 100 100 100 100 100 57 5 19 100 100 100 100 78 85 67 54 92 5 0 0 2 5 34 35 94 100 100 100 100 100 100 100 100
76 93 100 84 33 7 100 100 100 100 100 100 100 68 18 10 11 35 90 42 56 65 91 100 97 28 0 0 5 7 88 100 100 100 100 100 100 100 100 100 100 100 100
78 51 91 9 31 38 45 100 100 100 100 100 68 59 28 5 45 21 5 15 100 100 100 12 1 0 0 5 70 100 100 100 100 100 100 100 100 100 100 100 100 100 100
71 87 40 80 89 74 18 86 100 96 100 87 24 91 46 7 5 0 5 55 100 94 4 0 0 5 5 25 100 100 100 100 100 100 100 100 100 100 100 100 100 100 100
5 11 54 97 64 100 100 100 100 100 100 99 92 73 18 4 0 1 5 6 6 4 0 0 3 17 100 100 100 100 100 100 100 78 78 100 100 100 100 68 75 70 31
53 8 40 28 5 13 74 100 100 100 98 5 3 13 2 0 0 5 5 5 5 0 0 3 96 100 100 100 100 100 91 90 100 100 100 100 100 100 96 38 10 14 0
7 22 5 66 27 100 100 87 46 18 27 76 5 5 0 0 0 0 1 0 0 0 19 100 81 100 100 100 100 100 99 100 100 100 100 100 100 100 91 96 12 0 0
66 100 33 98 19 100 100 100 4 5 56 9 2 0 0 0 1 0 0 0 0 35 94 99 99 100 37 97 98 100 100 86 100 100 71 100 100 63 46 12 35 4 0
0 0 90 77 100 98 100 80 42 19 19 1 5 0 0 0 0 13 19 22 99 99 49 100 100 100 79 72 100 100 99 95 75 66 59 34 69 68 50 86 5 5 5
0 0 0 14 100 98 100 65 82 85 65 100 100 98 74 41 99 100 100 100 100 99 100 100 100 97 100 100 66 100 100 100 94 95 37 12 5 5 5 5 5 10 4
89 4 0 0 38 64 100 6 16 100 100 89 82 5 95 89 86 75 45 5 18 93 100 100 100 100 100 99 100 100 100 100 100 93 80 13 3 0 0 0 5 5 0
68 5 0 0 1 62 22 5 52 97 49 45 55 23 14 19 43 16 5 9 27 26 51 37 83 98 100 100 100 84 78 99 99 95 73 5 5 5 5 3 5 5 4
17 5 0 0 0 12 6 36 18 6 26 5 4 3 52 58 5 5 5 5 5 9 5 61 100 100 97 100 36 32 85 5 73 82 6 8 13 0 3 0 1 4 0
0 0 0 0 0 1 3 5 5 5 5 22 99 55 5 5 2 5 38 1 0 1 5 56 38 54 5 5 5 61 39 5 5 5 13 7 5 5 0 10 6 4 7
3 5 0 0 0 5 5 5 6 5 6 6 5 78 7 5 4 5 11 5 21 7 5 1 4 5 5 28 5 13 5 5 2 5 5 29 30 89 100 36 6 8 75
0 0 0 1 6 13 16 32 29 84 55 62 7 52 8 11 22 7 51 69 74 12 5 0 13 5 82 16 4 1 5 5 5 6 67 16 16 5 8 99 100 100 100